[[{"header":{"parameterUnit":"m.s-1","parameterCategory":1,"la1":30.2991,"la2":30.254,"lo1":-89.0895,"lo2":-89.0444,"dy":0.0017,"dx":0.0017,"nx":28,"ny":28,"refTime":"2025-03-24T03:00:00:Z","depth":0,"parameterNumber":2,"parameterNumberName":"U-component_of_WINDS"},"data":[0,0,0,0,0,0,0,0,0,0,0,0,0,0,0,0,0,0,0,0,0,0,0,0,0,0,0,0,0,0,0,0,0,0,0,0,0,0,0,0,0,0,0,0,0,0,0,0,0,0,0,0,0,0,0,0,0,0,-1.1382,-1.1383,0,-1.1436,-1.1437,-1.1437,-1.1462,-1.1462,-1.1461,-1.1461,-1.1517,-1.1518,-1.152,0,0,0,0,0,0,0,0,0,0,0,0,0,-1.13,-1.1302,-1.1382,-1.1383,-1.1383,-1.1436,-1.1437,-1.1438,-1.1462,-1.1462,-1.1461,-1.1461,-1.1516,-1.1518,-1.152,0,0,0,0,0,0,0,0,0,0,0,0,0,-1.1343,-1.1302,-1.1382,-1.1402,-1.1404,-1.1436,-1.1437,-1.1438,-1.1462,-1.1462,-1.1461,-1.1461,-1.1516,-1.1518,-1.152,-1.1536,0,0,-1.1527,-1.1528,0,0,0,0,0,0,0,0,-1.1341,-1.1346,-1.1398,-1.1401,-1.1403,-1.1442,-1.1428,-1.1471,-1.1462,-1.144,-1.1461,-1.1461,-1.1492,-1.1496,-1.1506,-1.1539,-1.1541,-1.1527,-1.1529,-1.153,-1.153,0,0,0,0,0,0,0,-1.1338,-1.1344,-1.1403,-1.1399,-1.1402,-1.1408,-1.1414,-1.1436,-1.1466,-1.1442,-1.1444,-1.145,-1.1493,-1.1504,-1.1508,-1.1542,-1.1527,-1.1529,-1.1531,-1.1532,-1.159,-1.1591,0,0,0,0,0,0,-1.1331,-1.1341,-1.1402,-1.1405,-1.1371,-1.141,-1.1416,-1.143,-1.1466,-1.1471,-1.145,-1.1451,-1.15,-1.1505,-1.151,-1.1531,-1.153,-1.1532,-1.1533,-1.159,-1.159,-1.1591,0,0,0,0,0,0,-1.133,-1.1337,-1.14,-1.1374,-1.1382,-1.1411,-1.1426,-1.1431,-1.1442,-1.1472,-1.1477,-1.1455,-1.15,-1.1507,-1.153,-1.1534,-1.1533,-1.1535,-1.159,-1.159,-1.159,-1.1574,0,0,0,0,0,0,-1.1327,-1.1336,-1.1342,-1.1374,-1.1384,-1.1418,-1.1426,-1.1432,-1.1446,-1.1447,-1.1478,-1.1483,-1.1501,-1.1526,-1.1532,-1.1537,-1.1537,-1.159,-1.159,-1.159,-1.1574,-1.1574,-1.1573,0,0,0,0,0,-1.1324,-1.1335,-1.1342,-1.1349,-1.1392,-1.1418,-1.1424,-1.1444,-1.1446,-1.1453,-1.1472,-1.1482,-1.1532,-1.1528,-1.1535,-1.1541,-1.159,-1.159,-1.159,-1.1575,-1.1574,-1.1573,0,0,0,0,0,0,-1.1303,-1.134,-1.1348,-1.137,-1.1391,-1.1422,-1.1431,-1.1442,-1.1463,-1.1464,-1.1487,-1.1494,-1.1515,-1.153,-1.1525,-1.1558,-1.1562,-1.1564,-1.1548,-1.1547,-1.1546,-1.1542,-1.1539,0,0,0,0,0,-1.1301,-1.1319,-1.135,-1.1366,-1.1377,-1.1402,-1.1414,-1.1428,-1.145,-1.1459,-1.148,-1.1502,-1.1523,-1.1536,-1.1556,-1.1577,-1.1584,-1.1584,-1.1583,-1.1583,-1.1584,-1.1596,-1.1597,-1.1592,-1.1592,-1.1592,0,0,-1.1297,-1.1319,-1.1329,-1.1363,-1.1381,-1.1399,-1.1409,-1.1428,-1.1442,-1.1462,-1.1485,-1.1501,-1.1527,-1.1549,-1.1559,-1.1562,-1.1587,-1.1583,-1.1583,-1.1584,-1.1597,-1.1597,-1.1598,-1.1592,-1.1592,-1.1592,0,0,-1.1299,-1.1318,-1.1333,-1.1351,-1.1378,-1.1395,-1.1399,-1.1429,-1.144,-1.1464,-1.1479,-1.1496,-1.1531,-1.1549,-1.1562,-1.1571,-1.1582,-1.1578,-1.1574,-1.1586,-1.1587,-1.1587,-1.159,-1.1591,-1.1579,-1.1579,-1.1579,0,-1.1291,-1.1319,-1.134,-1.1358,-1.1373,-1.1392,-1.1408,-1.1424,-1.1456,-1.1466,-1.1468,-1.1513,-1.1531,-1.1558,-1.156,-1.157,-1.1575,-1.1574,-1.1585,-1.1585,-1.1586,-1.159,-1.1591,-1.1578,-1.1578,-1.1578,-1.1578,0,-1.1307,-1.1327,-1.1336,-1.1367,-1.1382,-1.1399,-1.1423,-1.1436,-1.1448,-1.1465,-1.1489,-1.1512,-1.1538,-1.1545,-1.1557,-1.1573,-1.1574,-1.158,-1.1584,-1.1586,-1.1589,-1.1591,-1.1577,-1.1577,-1.1577,-1.1578,0,0,-1.1298,-1.134,-1.1343,-1.1357,-1.1389,-1.1404,-1.1422,-1.1447,-1.1458,-1.148,-1.1496,-1.1525,-1.1531,-1.1547,-1.1561,-1.1571,-1.1577,-1.1576,-1.1577,-1.1576,-1.1597,-1.1592,-1.1593,-1.1584,-1.1585,-1.1585,-1.1594,0,-1.1304,-1.1337,-1.1357,-1.1382,-1.14,-1.1418,-1.1434,-1.1455,-1.1471,-1.1489,-1.1507,-1.1528,-1.1534,-1.1544,-1.1555,-1.1574,-1.1582,-1.1574,-1.16,-1.16,-1.1592,-1.1595,-1.1589,-1.1597,-1.1596,-1.1596,-1.1597,0,-1.1316,-1.1337,-1.1364,-1.1393,-1.1402,-1.1416,-1.144,-1.1457,-1.1482,-1.1493,-1.151,-1.1524,-1.1544,-1.1547,-1.1575,-1.1569,-1.1581,-1.1592,-1.1593,-1.1596,-1.1598,-1.1598,-1.16,-1.1601,-1.1599,-1.1599,-1.1599,0,-1.1306,-1.1342,-1.1363,-1.1374,-1.1409,-1.1418,-1.1433,-1.1457,-1.1471,-1.1493,-1.1502,-1.1526,-1.1539,-1.1557,-1.1578,-1.1578,-1.1604,-1.1608,-1.1614,-1.1613,-1.1618,-1.1618,-1.1622,-1.1626,-1.1626,-1.1626,-1.1626,0,-1.1312,-1.1327,-1.1359,-1.1371,-1.139,-1.1412,-1.1429,-1.1446,-1.1467,-1.1484,-1.1501,-1.1516,-1.1542,-1.1561,-1.1577,-1.1598,-1.1604,-1.1613,-1.1617,-1.1612,-1.161,-1.162,-1.162,-1.1626,-1.1626,-1.1626,-1.1626,0,-1.1304,-1.1326,-1.1349,-1.138,-1.1388,-1.1401,-1.1427,-1.144,-1.1457,-1.1478,-1.1484,-1.1511,-1.1534,-1.1556,-1.1586,-1.1597,-1.1618,-1.1623,-1.161,-1.1612,-1.1616,-1.1616,-1.1627,-1.163,-1.1631,-1.1631,-1.1631,0,-1.1306,-1.1318,-1.1351,-1.1363,-1.1377,-1.1397,-1.1411,-1.1433,-1.1448,-1.1477,-1.1486,-1.151,-1.153,-1.1566,-1.1588,-1.1612,-1.1618,-1.162,-1.1621,-1.1615,-1.1618,-1.1617,-1.1618,-1.1619,-1.1619,-1.1619,-1.1619,0,-1.1307,-1.1317,-1.1337,-1.1361,-1.1377,-1.1397,-1.1417,-1.1426,-1.1453,-1.1468,-1.1491,-1.1507,-1.1538,-1.1562,-1.1588,-1.1604,-1.1616,-1.1619,-1.1621,-1.1616,-1.1607,-1.1612,-1.1608,-1.1618,-1.1618,-1.1618,-1.1618,-1.1618,-1.1304,-1.1316,-1.1341,-1.1362,-1.138,-1.1399,-1.1413,-1.1432,-1.1451,-1.1478,-1.1491,-1.1514,-1.1538,-1.1575,-1.159,-1.1609,-1.1612,-1.1616,-1.1617,-1.1617,-1.1616,-1.1604,-1.1614,-1.1614,-1.1614,-1.1614,-1.1614,0,-1.1306,-1.1323,-1.1343,-1.1371,-1.1388,-1.1398,-1.1421,-1.1435,-1.1455,-1.1477,-1.1496,-1.1523,-1.1546,-1.157,-1.1595,-1.1605,-1.1612,-1.1611,-1.1611,-1.1614,-1.1612,-1.1607,-1.1606,-1.1606,-1.1606,-1.1606,-1.1606,-1.1606,-1.1309,-1.133,-1.1343,-1.1373,-1.139,-1.1413,-1.1425,-1.1443,-1.146,-1.1489,-1.1509,-1.1524,-1.1547,-1.1573,-1.1595,-1.1602,-1.161,-1.1608,-1.1616,-1.1614,-1.1614,-1.1615,-1.161,-1.1609,-1.1609,-1.1616,-1.1617,-1.1617]},{"header":{"parameterUnit":"m.s-1","parameterCategory":1,"la1":30.2991,"la2":30.254,"lo1":-89.0895,"lo2":-89.0444,"dy":0.0017,"dx":0.0017,"nx":28,"ny":28,"refTime":"2025-03-24T03:00:00:Z","depth":0,"parameterNumber":3,"parameterNumberName":"V-component_of_WINDS"},"data":[0,0,0,0,0,0,0,0,0,0,0,0,0,0,0,0,0,0,0,0,0,0,0,0,0,0,0,0,0,0,0,0,0,0,0,0,0,0,0,0,0,0,0,0,0,0,0,0,0,0,0,0,0,0,0,0,0,0,4.4735,4.4734,0,4.4694,4.4694,4.4694,4.4652,4.4652,4.4651,4.4651,4.4606,4.4605,4.4604,0,0,0,0,0,0,0,0,0,0,0,0,0,4.4775,4.4775,4.4735,4.4734,4.4734,4.4695,4.4694,4.4693,4.4652,4.4652,4.4651,4.4651,4.4606,4.4605,4.4604,0,0,0,0,0,0,0,0,0,0,0,0,0,4.4749,4.4775,4.4735,4.4709,4.4706,4.4695,4.4694,4.4693,4.4653,4.4652,4.4651,4.465,4.4606,4.4605,4.4604,4.4614,0,0,4.4601,4.4601,0,0,0,0,0,0,0,0,4.475,4.4747,4.4713,4.4711,4.4708,4.4678,4.4692,4.4667,4.4653,4.4673,4.4651,4.465,4.463,4.4627,4.4621,4.4612,4.461,4.4601,4.46,4.46,4.46,0,0,0,0,0,0,0,4.4752,4.4749,4.4719,4.4713,4.4709,4.4699,4.4694,4.4687,4.4656,4.4671,4.4668,4.4664,4.4628,4.4622,4.462,4.4609,4.4601,4.46,4.4599,4.4599,4.461,4.461,0,0,0,0,0,0,4.4758,4.475,4.472,4.4718,4.4727,4.4699,4.4693,4.4688,4.4656,4.4651,4.4665,4.4662,4.4624,4.4621,4.4618,4.463,4.46,4.4599,4.4598,4.4609,4.461,4.4611,0,0,0,0,0,0,4.4759,4.4756,4.4722,4.4733,4.4728,4.4699,4.4693,4.4688,4.4681,4.4652,4.4646,4.4664,4.4624,4.4619,4.4616,4.4627,4.4598,4.4597,4.4608,4.4609,4.461,4.4652,0,0,0,0,0,0,4.4761,4.4756,4.476,4.4734,4.4728,4.4721,4.4694,4.4687,4.468,4.4677,4.465,4.4644,4.4623,4.4618,4.4615,4.4625,4.4597,4.4606,4.4608,4.461,4.4649,4.4654,4.4659,0,0,0,0,0,4.4762,4.4772,4.476,4.4757,4.4732,4.4722,4.4718,4.4694,4.4681,4.4685,4.4666,4.4645,4.4627,4.4618,4.4615,4.4625,4.4606,4.4608,4.461,4.4647,4.4653,4.4659,0,0,0,0,0,0,4.4798,4.4768,4.4755,4.4756,4.4742,4.4715,4.4718,4.4701,4.4689,4.4686,4.4656,4.465,4.4651,4.4637,4.4628,4.4634,4.4613,4.4615,4.4643,4.4649,4.4653,4.4657,4.4596,0,0,0,0,0,4.4807,4.4802,4.4775,4.4779,4.4773,4.4747,4.4742,4.4725,4.4709,4.4702,4.4683,4.4667,4.4658,4.4653,4.4642,4.4647,4.4642,4.4653,4.4657,4.4661,4.4663,4.4667,4.4672,4.4617,4.4617,4.4617,0,0,4.4823,4.4806,4.4804,4.4786,4.4773,4.4769,4.4742,4.4738,4.4735,4.4701,4.4698,4.4684,4.4664,4.4666,4.4666,4.4654,4.4677,4.4664,4.4668,4.4667,4.467,4.4675,4.468,4.4619,4.4619,4.4618,0,0,4.4852,4.4838,4.4841,4.483,4.4812,4.4795,4.4796,4.4772,4.4762,4.4759,4.4734,4.4729,4.4714,4.4702,4.4694,4.4722,4.4703,4.4719,4.4744,4.4748,4.4753,4.4757,4.4768,4.4773,4.4721,4.4721,4.4721,0,4.4874,4.4868,4.4844,4.4843,4.4837,4.4808,4.4812,4.4801,4.478,4.4776,4.4764,4.4746,4.4731,4.4731,4.4738,4.4732,4.4733,4.4722,4.4754,4.4758,4.4761,4.4772,4.4776,4.4723,4.4723,4.4723,4.4723,0,4.4898,4.4894,4.4899,4.4882,4.4876,4.4876,4.4853,4.485,4.4834,4.4819,4.4817,4.4799,4.4786,4.4784,4.4768,4.4783,4.4777,4.476,4.4739,4.4769,4.4779,4.4782,4.4726,4.4726,4.4725,4.4724,0,0,4.4945,4.4919,4.4921,4.4914,4.4894,4.489,4.489,4.4879,4.4878,4.4865,4.4865,4.4855,4.484,4.4831,4.4813,4.4817,4.4844,4.48,4.48,4.481,4.4861,4.4875,4.488,4.4831,4.4832,4.4832,4.4864,0,4.4971,4.4972,4.4952,4.4958,4.4956,4.493,4.4931,4.4918,4.4905,4.49,4.4885,4.4879,4.4859,4.4854,4.4857,4.484,4.4854,4.4837,4.4832,4.4832,4.4838,4.4885,4.4898,4.4928,4.4867,4.4868,4.4868,0,4.5001,4.4993,4.5,4.4982,4.498,4.4981,4.4971,4.4967,4.4953,4.4943,4.4935,4.4916,4.4916,4.4896,4.4896,4.4886,4.4882,4.4874,4.4875,4.4874,4.4852,4.4886,4.4937,4.4942,4.4874,4.4873,4.4873,0,4.5038,4.5028,4.5032,4.5026,4.5005,4.5007,4.4998,4.4984,4.498,4.4971,4.4968,4.4958,4.4953,4.4947,4.4926,4.4913,4.4929,4.4907,4.4922,4.4922,4.4926,4.4926,4.4979,4.4923,4.4923,4.4922,4.4922,0,4.5069,4.5074,4.5048,4.505,4.5056,4.5034,4.504,4.5029,4.5017,4.5016,4.4993,4.4993,4.4966,4.4963,4.4947,4.495,4.4948,4.494,4.4936,4.4943,4.4944,4.494,4.4938,4.4924,4.4923,4.4923,4.4923,0,4.5111,4.5093,4.5096,4.5077,4.5073,4.5078,4.5062,4.5063,4.5049,4.5049,4.5048,4.5026,4.5022,4.5001,4.4991,4.4981,4.499,4.4981,4.4996,4.4993,4.5009,4.5009,4.5062,4.5069,4.5008,4.5008,4.5009,0,4.5132,4.5136,4.5119,4.5118,4.5111,4.511,4.5106,4.5085,4.5082,4.5069,4.5072,4.5067,4.5061,4.5056,4.5039,4.5032,4.5023,4.5043,4.5022,4.503,4.5025,4.5026,4.5027,4.5047,4.5048,4.5048,4.5049,0,4.5173,4.5165,4.5162,4.5157,4.5154,4.5148,4.514,4.5141,4.5118,4.5116,4.5113,4.5109,4.5101,4.5096,4.5087,4.5077,4.506,4.5056,4.5059,4.5066,4.5075,4.5073,4.5009,4.5054,4.5054,4.5053,4.5053,4.5053,4.5206,4.521,4.5199,4.5197,4.519,4.5185,4.5186,4.5174,4.5171,4.5164,4.5152,4.5151,4.5139,4.5126,4.5118,4.5117,4.5107,4.5111,4.5112,4.5114,4.5119,4.5076,4.5115,4.5115,4.5115,4.5115,4.5115,0,4.5247,4.524,4.5238,4.5231,4.523,4.5215,4.5207,4.5207,4.5207,4.5198,4.5194,4.5192,4.5188,4.5172,4.5167,4.517,4.5162,4.5169,4.5169,4.5167,4.5127,4.5126,4.5176,4.5176,4.5176,4.5176,4.5176,4.5176,4.5268,4.5275,4.5266,4.5269,4.5262,4.5262,4.5259,4.5255,4.5248,4.5247,4.5245,4.5235,4.5224,4.5218,4.5215,4.521,4.521,4.522,4.5213,4.5176,4.517,4.5164,4.5163,4.522,4.522,4.5254,4.5254,4.5254]}]]